Year,Month,Day,Hour,Minute,Value (Times are PST for temperature in C)
2006,10,10,00,00,5.70
2006,10,10,00,01,5.70
2006,10,10,00,02,5.70
2006,10,10,00,03,5.70
2006,10,10,00,04,5.70
2006,10,10,00,05,5.70
2006,10,10,00,06,5.70
2006,10,10,00,07,5.70
2006,10,10,00,08,5.70
2006,10,10,00,09,5.70
2006,10,10,00,10,5.70
2006,10,10,00,11,5.60
2006,10,10,00,12,5.60
2006,10,10,00,13,5.60
2006,10,10,01,02,5.30
2006,10,10,01,03,5.30
2006,10,10,01,04,5.30
2006,10,10,01,05,5.30
2006,10,10,01,06,5.30
2006,10,10,01,07,5.30
2006,10,10,01,08,5.30
2006,10,10,01,09,5.30
2006,10,10,01,10,5.30
2006,10,10,01,11,5.30
2006,10,10,01,12,5.30
2006,10,10,01,13,5.30
2006,10,10,01,14,5.30
2006,10,10,01,15,5.20
2006,10,10,01,16,5.20
2006,10,10,01,17,5.20
2006,10,10,01,18,5.20
2006,10,10,01,19,5.20
2006,10,10,01,20,5.20
2006,10,10,01,21,5.20
2006,10,10,01,22,5.10
2006,10,10,01,23,5.10
2006,10,10,01,24,5.10
2006,10,10,01,25,5.10
2006,10,10,01,26,5.10
2006,10,10,01,27,5.10
2006,10,10,01,28,5.10
2006,10,10,01,29,5.10
2006,10,10,01,30,5.10
2006,10,10,01,31,5.10
2006,10,10,01,32,5.10
2006,10,10,01,33,5.10
2006,10,10,01,34,5.00
2006,10,10,01,35,4.90
2006,10,10,01,36,4.90
2006,10,10,01,37,4.90
2006,10,10,01,38,4.90
2006,10,10,01,39,4.90
2006,10,10,01,40,4.90
2006,10,10,01,41,4.90
2006,10,10,01,42,4.90
2006,10,10,01,43,4.90
2006,10,10,01,44,4.90
2006,10,10,01,45,4.90
2006,10,10,01,46,4.90
2006,10,10,01,47,4.90
2006,10,10,01,48,4.90
2006,10,10,01,49,4.90
2006,10,10,01,50,4.90
2006,10,10,01,51,4.90
2006,10,10,01,52,4.90
2006,10,10,01,53,4.90
2006,10,10,01,54,4.90
2006,10,10,01,55,4.90
2006,10,10,01,56,4.90
2006,10,10,01,57,4.90
2006,10,10,01,58,4.90
2006,10,10,01,59,4.90
2006,10,10,02,00,4.90
2006,10,10,02,01,4.80
2006,10,10,02,02,4.80
2006,10,10,02,03,4.80
2006,10,10,02,04,4.80
2006,10,10,02,05,4.80
2006,10,10,02,06,4.80
2006,10,10,02,07,4.80
2006,10,10,02,08,4.80
2006,10,10,02,09,4.80
2006,10,10,02,10,4.80
2006,10,10,02,11,4.80
2006,10,10,02,12,4.80
2006,10,10,02,13,4.80
2006,10,10,02,14,4.80
2006,10,10,02,15,4.80
2006,10,10,02,16,4.80
2006,10,10,02,17,4.80
2006,10,10,02,18,4.80
2006,10,10,02,19,4.80
2006,10,10,02,20,4.80
2006,10,10,02,21,4.80
2006,10,10,02,22,4.80
2006,10,10,02,23,4.80
2006,10,10,02,24,4.80
2006,10,10,02,25,4.80
2006,10,10,02,26,4.80
2006,10,10,02,27,4.80
2006,10,10,02,28,4.80
2006,10,10,02,29,4.80
2006,10,10,02,30,4.80
2006,10,10,02,31,4.80
2006,10,10,02,32,4.80
2006,10,10,02,33,4.80
2006,10,10,02,34,4.80
2006,10,10,02,35,4.80
2006,10,10,02,36,4.80
2006,10,10,02,37,4.70
2006,10,10,02,38,4.70
2006,10,10,02,39,4.70
2006,10,10,02,40,4.70
2006,10,10,02,41,4.70
2006,10,10,02,42,4.70
2006,10,10,02,43,4.60
2006,10,10,02,44,4.60
2006,10,10,02,45,4.60
2006,10,10,02,46,4.60
2006,10,10,02,47,4.60
2006,10,10,02,48,4.60
2006,10,10,02,49,4.60
2006,10,10,02,50,4.60
2006,10,10,02,51,4.60
2006,10,10,02,52,4.60
2006,10,10,02,53,4.60
2006,10,10,02,54,4.60
2006,10,10,02,55,4.60
2006,10,10,02,56,4.60
2006,10,10,02,57,4.60
2006,10,10,02,58,4.60
2006,10,10,02,59,4.60
2006,10,10,03,00,4.60
2006,10,10,03,01,4.60
2006,10,10,03,02,4.60
2006,10,10,03,03,4.60
2006,10,10,03,04,4.60
2006,10,10,03,05,4.60
2006,10,10,03,06,4.60
2006,10,10,03,07,4.60
2006,10,10,03,08,4.60
2006,10,10,03,09,4.60
2006,10,10,03,10,4.60
2006,10,10,03,11,4.60
2006,10,10,03,12,4.60
2006,10,10,03,13,4.60
2006,10,10,03,14,4.60
2006,10,10,03,15,4.60
2006,10,10,03,16,4.60
2006,10,10,03,17,4.60
2006,10,10,03,18,4.60
2006,10,10,03,19,4.60
2006,10,10,03,20,4.60
2006,10,10,03,21,4.60
2006,10,10,03,22,4.60
2006,10,10,03,23,4.60
2006,10,10,03,24,4.60
2006,10,10,03,25,4.60
2006,10,10,03,26,4.60
2006,10,10,03,27,4.60
2006,10,10,03,28,4.60
2006,10,10,03,29,4.60
2006,10,10,03,30,4.60
2006,10,10,03,31,4.60
2006,10,10,03,32,4.60
2006,10,10,03,33,4.60
2006,10,10,03,34,4.60
2006,10,10,03,35,4.60
2006,10,10,03,36,4.60
2006,10,10,03,37,4.60
2006,10,10,03,38,4.60
2006,10,10,03,39,4.60
2006,10,10,03,40,4.60
2006,10,10,03,41,4.60
2006,10,10,03,42,4.60
2006,10,10,03,43,4.60
2006,10,10,03,44,4.60
2006,10,10,03,45,4.60
2006,10,10,03,46,4.70
2006,10,10,03,47,4.70
2006,10,10,03,48,4.70
2006,10,10,03,49,4.70
2006,10,10,03,50,4.70
2006,10,10,03,51,4.70
2006,10,10,03,52,4.70
2006,10,10,03,53,4.70
2006,10,10,03,54,4.70
2006,10,10,03,55,4.70
2006,10,10,03,56,4.70
2006,10,10,03,57,4.80
2006,10,10,03,58,4.80
2006,10,10,03,59,4.80
2006,10,10,04,00,4.80
2006,10,10,04,01,4.80
2006,10,10,04,02,4.80
2006,10,10,04,03,4.80
2006,10,10,04,04,4.80
2006,10,10,04,05,4.80
2006,10,10,04,06,4.80
2006,10,10,04,07,4.80
2006,10,10,04,08,4.90
2006,10,10,04,09,4.90
2006,10,10,04,10,4.90
2006,10,10,04,11,4.90
2006,10,10,04,12,4.90
2006,10,10,04,13,4.90
2006,10,10,04,14,4.90
2006,10,10,04,15,4.90
2006,10,10,04,16,4.90
2006,10,10,04,17,4.90
2006,10,10,04,18,4.90
2006,10,10,04,19,4.90
2006,10,10,04,20,4.90
2006,10,10,04,21,4.90
2006,10,10,04,22,4.90
2006,10,10,04,23,4.90
2006,10,10,04,24,4.90
2006,10,10,04,25,4.90
2006,10,10,04,26,4.90
2006,10,10,04,27,4.90
2006,10,10,04,28,4.90
2006,10,10,04,29,4.90
2006,10,10,04,30,4.90
2006,10,10,04,31,4.90
2006,10,10,04,32,4.80
2006,10,10,04,33,4.80
2006,10,10,04,34,4.80
2006,10,10,04,35,4.80
2006,10,10,04,36,4.80
2006,10,10,04,37,4.80
2006,10,10,04,38,4.80
2006,10,10,04,39,4.80
2006,10,10,04,40,4.80
2006,10,10,04,41,4.70
2006,10,10,04,42,4.70
2006,10,10,04,43,4.70
2006,10,10,04,44,4.70
2006,10,10,04,45,4.70
2006,10,10,04,46,4.70
2006,10,10,04,47,4.70
2006,10,10,04,48,4.70
2006,10,10,04,49,4.70
2006,10,10,04,50,4.70
2006,10,10,04,51,4.70
2006,10,10,04,52,4.60
2006,10,10,04,53,4.60
2006,10,10,04,54,4.60
2006,10,10,04,55,4.60
2006,10,10,04,56,4.60
2006,10,10,04,57,4.60
2006,10,10,04,58,4.60
2006,10,10,04,59,4.60
2006,10,10,05,00,4.60
2006,10,10,05,01,4.60
2006,10,10,05,02,4.60
2006,10,10,05,03,4.60
2006,10,10,05,04,4.60
2006,10,10,05,05,4.50
2006,10,10,05,06,4.50
2006,10,10,05,07,4.50
2006,10,10,05,08,4.50
2006,10,10,05,09,4.50
2006,10,10,05,10,4.50
2006,10,10,05,11,4.50
2006,10,10,05,12,4.50
2006,10,10,05,13,4.50
2006,10,10,05,14,4.50
2006,10,10,05,15,4.50
2006,10,10,05,16,4.50
2006,10,10,05,17,4.50
2006,10,10,05,18,4.50
2006,10,10,05,19,4.50
2006,10,10,05,20,4.50
2006,10,10,05,21,4.50
2006,10,10,05,22,4.50
2006,10,10,05,23,4.60
2006,10,10,05,24,4.60
2006,10,10,05,25,4.60
2006,10,10,05,26,4.60
2006,10,10,05,27,4.60
2006,10,10,05,28,4.60
2006,10,10,05,29,4.60
2006,10,10,05,30,4.60
2006,10,10,05,31,4.60
2006,10,10,05,32,4.60
2006,10,10,05,33,4.60
2006,10,10,05,34,4.60
2006,10,10,05,35,4.60
2006,10,10,05,36,4.60
2006,10,10,05,37,4.60
2006,10,10,05,38,4.60
2006,10,10,05,39,4.60
2006,10,10,05,40,4.60
2006,10,10,05,41,4.60
2006,10,10,05,42,4.60
2006,10,10,05,43,4.60
2006,10,10,05,44,4.60
2006,10,10,05,45,4.60
2006,10,10,05,46,4.60
2006,10,10,05,47,4.60
2006,10,10,05,48,4.60
2006,10,10,05,49,4.60
2006,10,10,05,50,4.60
2006,10,10,05,51,4.60
2006,10,10,05,52,4.60
2006,10,10,05,53,4.60
2006,10,10,05,54,4.60
2006,10,10,05,55,4.60
2006,10,10,05,56,4.60
2006,10,10,05,57,4.60
2006,10,10,05,58,4.60
2006,10,10,05,59,4.70
2006,10,10,06,00,4.70
2006,10,10,06,01,4.70
2006,10,10,06,02,4.70
2006,10,10,06,03,4.70
2006,10,10,06,04,4.70
2006,10,10,06,05,4.70
2006,10,10,06,06,4.70
2006,10,10,06,07,4.80
2006,10,10,06,08,4.80
2006,10,10,06,09,4.80
2006,10,10,06,10,4.80
2006,10,10,06,11,4.80
2006,10,10,06,12,4.90
2006,10,10,06,13,4.90
2006,10,10,06,14,4.90
2006,10,10,06,15,4.90
2006,10,10,06,16,4.90
2006,10,10,06,17,4.90
2006,10,10,06,18,4.90
2006,10,10,06,19,4.90
2006,10,10,06,20,4.90
2006,10,10,06,21,4.90
2006,10,10,06,22,4.90
2006,10,10,06,23,4.90
2006,10,10,06,24,4.90
2006,10,10,06,25,4.90
2006,10,10,06,26,4.90
2006,10,10,06,27,4.90
2006,10,10,06,28,4.90
2006,10,10,06,29,4.90
2006,10,10,06,30,4.90
2006,10,10,06,31,4.90
2006,10,10,06,32,4.90
2006,10,10,06,33,4.90
2006,10,10,06,34,4.90
2006,10,10,06,35,4.90
2006,10,10,06,36,4.90
2006,10,10,06,37,4.90
2006,10,10,06,38,4.90
2006,10,10,06,39,4.90
2006,10,10,06,40,4.90
2006,10,10,06,41,4.90
2006,10,10,06,42,4.90
2006,10,10,06,43,4.90
2006,10,10,06,44,4.90
2006,10,10,06,45,4.90
2006,10,10,06,46,4.90
2006,10,10,06,47,4.80
2006,10,10,06,48,4.80
2006,10,10,06,49,4.80
2006,10,10,06,50,4.80
2006,10,10,06,51,4.80
2006,10,10,06,52,4.80
2006,10,10,06,53,4.80
2006,10,10,06,54,4.80
2006,10,10,06,55,4.80
2006,10,10,06,56,4.80
2006,10,10,06,57,4.80
2006,10,10,06,58,4.80
2006,10,10,06,59,4.80
2006,10,10,07,00,4.80
2006,10,10,07,01,4.80
2006,10,10,07,02,4.80
2006,10,10,07,03,4.80
2006,10,10,07,04,4.80
2006,10,10,07,05,4.80
2006,10,10,07,06,4.80
2006,10,10,07,07,4.80
2006,10,10,07,08,4.80
2006,10,10,07,09,4.80
2006,10,10,07,10,4.80
2006,10,10,07,11,4.80
2006,10,10,07,12,4.70
2006,10,10,07,13,4.70
2006,10,10,07,14,4.70
2006,10,10,07,15,4.70
2006,10,10,07,16,4.70
2006,10,10,07,17,4.70
2006,10,10,07,18,4.70
2006,10,10,07,19,4.70
2006,10,10,07,20,4.70
2006,10,10,07,21,4.70
2006,10,10,07,22,4.70
2006,10,10,07,23,4.70
2006,10,10,07,24,4.70
2006,10,10,07,25,4.70
2006,10,10,07,26,4.70
2006,10,10,07,27,4.70
2006,10,10,07,28,4.60
2006,10,10,07,29,4.60
2006,10,10,07,30,4.60
2006,10,10,07,31,4.60
2006,10,10,07,32,4.60
2006,10,10,07,33,4.60
2006,10,10,07,34,4.60
2006,10,10,07,35,4.60
2006,10,10,07,36,4.60
2006,10,10,07,37,4.60
2006,10,10,07,38,4.60
2006,10,10,07,39,4.60
2006,10,10,07,40,4.70
2006,10,10,07,41,4.70
2006,10,10,07,42,4.70
2006,10,10,07,43,4.70
2006,10,10,07,44,4.70
2006,10,10,07,45,4.70
2006,10,10,07,46,4.70
2006,10,10,07,47,4.70
2006,10,10,07,48,4.70
2006,10,10,07,49,4.70
2006,10,10,07,50,4.70
2006,10,10,07,51,4.70
2006,10,10,07,52,4.70
2006,10,10,07,53,4.70
2006,10,10,07,54,4.70
2006,10,10,07,55,4.70
2006,10,10,07,56,4.70
2006,10,10,07,57,4.70
2006,10,10,07,58,4.70
2006,10,10,07,59,4.70
2006,10,10,08,00,4.70
2006,10,10,08,01,4.70
2006,10,10,08,02,4.70
2006,10,10,08,03,4.70
2006,10,10,08,04,4.70
2006,10,10,08,05,4.70
2006,10,10,08,06,4.70
2006,10,10,08,07,4.80
2006,10,10,08,08,4.80
2006,10,10,08,09,4.80
2006,10,10,08,10,4.80
2006,10,10,08,11,4.90
2006,10,10,08,12,4.90
2006,10,10,08,13,4.90
2006,10,10,08,14,4.90
2006,10,10,08,15,5.00
2006,10,10,08,16,5.10
2006,10,10,08,17,5.10
2006,10,10,08,18,5.10
2006,10,10,08,19,5.10
2006,10,10,08,20,5.10
2006,10,10,08,21,5.20
2006,10,10,08,22,5.30
2006,10,10,08,23,5.30
2006,10,10,08,24,5.40
2006,10,10,08,25,5.50
2006,10,10,08,26,5.50
2006,10,10,08,27,5.60
2006,10,10,08,28,5.70
2006,10,10,08,29,5.70
2006,10,10,08,30,5.70
2006,10,10,08,31,5.80
2006,10,10,08,32,5.80
2006,10,10,08,33,5.90
2006,10,10,08,34,6.00
2006,10,10,08,35,6.00
2006,10,10,08,36,6.10
2006,10,10,08,37,6.10
2006,10,10,08,38,6.20
2006,10,10,08,39,6.20
2006,10,10,08,40,6.30
2006,10,10,08,41,6.40
2006,10,10,08,42,6.40
2006,10,10,08,43,6.50
2006,10,10,08,44,6.60
2006,10,10,08,45,6.70
2006,10,10,08,46,6.80
2006,10,10,08,47,6.80
2006,10,10,08,48,6.90
2006,10,10,08,49,7.00
2006,10,10,08,50,7.10
2006,10,10,08,51,7.20
2006,10,10,08,52,7.30
2006,10,10,08,53,7.30
2006,10,10,08,54,7.40
2006,10,10,08,55,7.50
2006,10,10,08,56,7.60
2006,10,10,08,57,7.70
2006,10,10,08,58,7.80
2006,10,10,08,59,7.90
2006,10,10,09,00,8.00
2006,10,10,09,01,8.10
2006,10,10,09,02,8.20
2006,10,10,09,03,8.30
2006,10,10,09,04,8.50
2006,10,10,09,05,8.50
2006,10,10,09,06,8.60
2006,10,10,09,07,8.70
2006,10,10,09,08,8.80
2006,10,10,09,09,8.90
2006,10,10,09,10,9.00
2006,10,10,09,11,9.20
2006,10,10,09,12,9.30
2006,10,10,09,13,9.50
2006,10,10,09,14,9.60
2006,10,10,09,15,9.70
2006,10,10,09,16,9.80
2006,10,10,09,17,10.00
2006,10,10,09,18,10.20
2006,10,10,09,19,10.50
2006,10,10,09,20,10.70
2006,10,10,09,21,10.90
2006,10,10,09,22,11.00
2006,10,10,09,23,11.10
2006,10,10,09,24,11.30
2006,10,10,09,25,11.40
2006,10,10,09,26,11.50
2006,10,10,09,27,11.60
2006,10,10,09,28,11.60
2006,10,10,09,29,11.70
2006,10,10,09,30,11.80
2006,10,10,09,31,11.80
2006,10,10,09,32,11.80
2006,10,10,09,33,11.80
2006,10,10,09,34,11.80
2006,10,10,09,35,11.80
2006,10,10,09,36,11.80
2006,10,10,09,37,11.80
2006,10,10,09,38,11.80
2006,10,10,09,39,11.90
2006,10,10,09,40,11.90
2006,10,10,09,41,11.90
2006,10,10,09,42,11.90
2006,10,10,09,43,11.90
2006,10,10,09,44,11.90
2006,10,10,09,45,12.00
2006,10,10,09,46,12.00
2006,10,10,09,47,12.10
2006,10,10,09,48,12.10
2006,10,10,09,49,12.10
2006,10,10,09,50,12.10
2006,10,10,09,51,12.20
2006,10,10,09,52,12.30
2006,10,10,09,53,12.30
2006,10,10,09,54,12.30
2006,10,10,09,55,12.30
2006,10,10,09,56,12.30
2006,10,10,09,57,12.30
2006,10,10,09,58,12.30
2006,10,10,09,59,12.30
2006,10,10,10,00,12.30
2006,10,10,10,01,12.30
2006,10,10,10,02,12.30
2006,10,10,10,03,12.30
2006,10,10,10,04,12.30
2006,10,10,10,05,12.30
2006,10,10,10,06,12.30
2006,10,10,10,07,12.30
2006,10,10,10,08,12.30
2006,10,10,10,09,12.30
2006,10,10,10,10,12.30
2006,10,10,10,11,12.30
2006,10,10,10,12,12.30
2006,10,10,10,13,12.40
2006,10,10,10,14,12.40
2006,10,10,10,15,12.50
2006,10,10,10,16,12.50
2006,10,10,10,17,12.60
2006,10,10,10,18,12.60
2006,10,10,10,19,12.70
2006,10,10,10,20,12.70
2006,10,10,10,21,12.70
2006,10,10,10,22,12.70
2006,10,10,10,23,12.70
2006,10,10,10,24,12.70
2006,10,10,10,25,12.70
2006,10,10,10,26,12.60
2006,10,10,10,27,12.50
2006,10,10,10,28,12.40
2006,10,10,10,29,12.40
2006,10,10,10,30,12.40
2006,10,10,10,31,12.40
2006,10,10,10,32,12.40
2006,10,10,10,33,12.30
2006,10,10,10,34,12.30
2006,10,10,10,35,12.30
2006,10,10,10,36,12.30
2006,10,10,10,37,12.30
2006,10,10,10,38,12.30
2006,10,10,10,39,12.30
2006,10,10,10,40,12.30
2006,10,10,10,41,12.30
2006,10,10,10,42,12.30
2006,10,10,10,43,12.30
2006,10,10,10,44,12.30
2006,10,10,10,45,12.40
2006,10,10,10,46,12.50
2006,10,10,10,47,12.50
2006,10,10,10,48,12.60
2006,10,10,10,49,12.60
2006,10,10,10,50,12.70
2006,10,10,10,51,12.70
2006,10,10,10,52,12.70
2006,10,10,10,53,12.70
2006,10,10,10,54,12.70
2006,10,10,10,55,12.70
2006,10,10,10,56,12.80
2006,10,10,10,57,12.80
2006,10,10,10,58,12.80
2006,10,10,10,59,12.80
2006,10,10,11,00,12.90
2006,10,10,11,01,12.90
2006,10,10,11,02,13.00
2006,10,10,11,03,13.10
2006,10,10,11,04,13.20
2006,10,10,11,05,13.30
2006,10,10,11,06,13.30
2006,10,10,11,07,13.40
2006,10,10,11,08,13.40
2006,10,10,11,09,13.50
2006,10,10,11,10,13.60
2006,10,10,11,11,13.60
2006,10,10,11,12,13.60
2006,10,10,11,13,13.60
2006,10,10,11,14,13.60
2006,10,10,11,15,13.50
2006,10,10,11,16,13.50
2006,10,10,11,17,13.40
2006,10,10,11,18,13.30
2006,10,10,11,19,13.30
2006,10,10,11,20,13.40
2006,10,10,11,21,13.50
2006,10,10,11,22,13.50
2006,10,10,11,23,13.60
2006,10,10,11,24,13.60
2006,10,10,11,25,13.70
2006,10,10,11,26,13.70
2006,10,10,11,27,13.70
2006,10,10,11,28,13.70
2006,10,10,11,29,13.80
2006,10,10,11,30,13.80
2006,10,10,11,31,13.80
2006,10,10,11,32,13.70
2006,10,10,11,33,13.70
2006,10,10,11,34,13.70
2006,10,10,11,35,13.60
2006,10,10,11,36,13.70
2006,10,10,11,37,13.70
2006,10,10,11,38,13.70
2006,10,10,11,39,13.70
2006,10,10,11,40,13.80
2006,10,10,11,41,13.90
2006,10,10,11,42,14.00
2006,10,10,11,43,14.10
2006,10,10,11,44,14.20
2006,10,10,11,45,14.40
2006,10,10,11,46,14.50
2006,10,10,11,47,14.60
2006,10,10,11,48,14.80
2006,10,10,11,49,14.80
2006,10,10,11,50,14.80
2006,10,10,11,51,14.80
2006,10,10,11,52,14.80
2006,10,10,11,53,14.70
2006,10,10,11,54,14.70
2006,10,10,11,55,14.80
2006,10,10,11,56,14.80
2006,10,10,11,57,14.80
2006,10,10,11,58,14.90
2006,10,10,11,59,15.00
2006,10,10,12,00,15.00
2006,10,10,12,01,15.00
2006,10,10,12,02,15.00
2006,10,10,12,03,15.00
2006,10,10,12,04,15.00
2006,10,10,12,05,15.00
2006,10,10,12,06,15.10
2006,10,10,12,07,15.10
2006,10,10,12,08,15.00
2006,10,10,12,09,15.00
2006,10,10,12,10,14.90
2006,10,10,12,11,15.00
2006,10,10,12,12,15.10
2006,10,10,12,13,15.20
2006,10,10,12,14,15.30
2006,10,10,12,15,15.30
2006,10,10,12,16,15.30
2006,10,10,12,17,15.40
2006,10,10,12,18,15.30
2006,10,10,12,19,15.20
2006,10,10,12,20,15.10
2006,10,10,12,21,15.00
2006,10,10,12,22,14.90
2006,10,10,12,23,15.00
2006,10,10,12,24,15.00
2006,10,10,12,25,15.00
2006,10,10,12,26,14.90
2006,10,10,12,27,14.80
2006,10,10,12,28,14.70
2006,10,10,12,29,14.60
2006,10,10,12,30,14.60
2006,10,10,12,31,14.50
2006,10,10,12,32,14.50
2006,10,10,12,33,14.60
2006,10,10,12,34,14.60
2006,10,10,12,35,14.70
2006,10,10,12,36,14.70
2006,10,10,12,37,14.80
2006,10,10,12,38,14.80
2006,10,10,12,39,14.80
2006,10,10,12,40,14.80
2006,10,10,12,41,14.80
2006,10,10,12,42,14.80
2006,10,10,12,43,14.80
2006,10,10,12,44,14.80
2006,10,10,12,45,14.90
2006,10,10,12,46,15.00
2006,10,10,12,47,15.00
2006,10,10,12,48,15.00
2006,10,10,12,49,15.00
2006,10,10,12,50,15.00
2006,10,10,12,51,15.00
2006,10,10,12,52,15.00
2006,10,10,12,53,15.10
2006,10,10,12,54,15.20
2006,10,10,12,55,15.20
2006,10,10,12,56,15.20
2006,10,10,12,57,15.30
2006,10,10,12,58,15.30
2006,10,10,12,59,15.30
2006,10,10,13,00,15.30
2006,10,10,13,01,15.30
2006,10,10,13,02,15.30
2006,10,10,13,03,15.30
2006,10,10,13,04,15.30
2006,10,10,13,05,15.40
2006,10,10,13,06,15.40
2006,10,10,13,07,15.50
2006,10,10,13,08,15.50
2006,10,10,13,09,15.60
2006,10,10,13,10,15.60
2006,10,10,13,11,15.70
2006,10,10,13,12,15.70
2006,10,10,13,13,15.80
2006,10,10,13,14,15.80
2006,10,10,13,15,15.80
2006,10,10,13,16,15.80
2006,10,10,13,17,15.80
2006,10,10,13,18,15.80
2006,10,10,13,19,15.80
2006,10,10,13,20,15.80
2006,10,10,13,21,15.80
2006,10,10,13,22,15.80
2006,10,10,13,23,15.80
2006,10,10,13,24,15.80
2006,10,10,13,25,15.80
2006,10,10,13,26,15.80
2006,10,10,13,27,15.80
2006,10,10,13,28,15.90
2006,10,10,13,29,15.90
2006,10,10,13,30,15.90
2006,10,10,13,31,15.90
2006,10,10,13,32,15.90
2006,10,10,13,33,15.90
2006,10,10,13,34,15.90
2006,10,10,13,35,15.80
2006,10,10,13,36,15.70
2006,10,10,13,37,15.70
2006,10,10,13,38,15.70
2006,10,10,13,39,15.70
2006,10,10,13,40,15.70
2006,10,10,13,41,15.70
2006,10,10,13,42,15.70
2006,10,10,13,43,15.70
2006,10,10,13,44,15.70
2006,10,10,13,45,15.70
2006,10,10,13,46,15.70
2006,10,10,13,47,15.80
2006,10,10,13,48,15.80
2006,10,10,13,49,15.90
2006,10,10,13,50,16.00
2006,10,10,13,51,16.10
2006,10,10,13,52,16.10
2006,10,10,13,53,16.10
2006,10,10,13,54,16.10
2006,10,10,13,55,16.20
2006,10,10,13,56,16.20
2006,10,10,13,57,16.20
2006,10,10,13,58,16.20
2006,10,10,13,59,16.20
2006,10,10,14,00,16.10
2006,10,10,14,01,16.20
2006,10,10,14,02,16.20
2006,10,10,14,03,16.20
2006,10,10,14,04,16.10
2006,10,10,14,05,16.10
2006,10,10,14,06,16.10
2006,10,10,14,07,16.10
2006,10,10,14,08,16.10
2006,10,10,14,09,16.10
2006,10,10,14,10,16.10
2006,10,10,14,11,16.20
2006,10,10,14,12,16.20
2006,10,10,14,13,16.20
2006,10,10,14,14,16.30
2006,10,10,14,15,16.40
2006,10,10,14,16,16.40
2006,10,10,14,17,16.30
2006,10,10,14,18,16.30
2006,10,10,14,19,16.20
2006,10,10,14,20,16.10
2006,10,10,14,21,16.10
2006,10,10,14,22,16.00
2006,10,10,14,23,15.90
2006,10,10,14,24,15.90
2006,10,10,14,25,15.90
2006,10,10,14,26,15.80
2006,10,10,14,27,15.80
2006,10,10,14,28,15.90
2006,10,10,14,29,15.90
2006,10,10,14,30,15.80
2006,10,10,14,31,15.90
2006,10,10,14,32,15.90
2006,10,10,14,33,16.00
2006,10,10,14,34,16.10
2006,10,10,14,35,16.10
2006,10,10,14,36,16.10
2006,10,10,14,37,16.00
2006,10,10,14,38,15.90
2006,10,10,14,39,15.90
2006,10,10,14,40,16.00
2006,10,10,14,41,16.10
2006,10,10,14,42,16.10
2006,10,10,14,43,16.10
2006,10,10,14,44,16.10
2006,10,10,14,45,16.10
2006,10,10,14,46,16.10
2006,10,10,14,47,16.10
2006,10,10,14,48,16.10
2006,10,10,14,49,16.00
2006,10,10,14,50,15.90
2006,10,10,14,51,15.90
2006,10,10,14,52,15.80
2006,10,10,14,53,15.70
2006,10,10,14,54,15.60
2006,10,10,14,55,15.60
2006,10,10,14,56,15.60
2006,10,10,14,57,15.70
2006,10,10,14,58,15.70
2006,10,10,14,59,15.70
2006,10,10,15,00,15.70
2006,10,10,15,01,15.70
2006,10,10,15,02,15.70
2006,10,10,15,03,15.70
2006,10,10,15,04,15.60
2006,10,10,15,05,15.50
2006,10,10,15,06,15.50
2006,10,10,15,07,15.40
2006,10,10,15,08,15.40
2006,10,10,15,09,15.30
2006,10,10,15,10,15.30
2006,10,10,15,11,15.30
2006,10,10,15,12,15.20
2006,10,10,15,13,15.20
2006,10,10,15,14,15.20
2006,10,10,15,15,15.20
2006,10,10,15,16,15.20
2006,10,10,15,17,15.10
2006,10,10,15,18,15.10
2006,10,10,15,19,15.00
2006,10,10,15,20,15.00
2006,10,10,15,21,14.90
2006,10,10,15,22,14.90
2006,10,10,15,23,14.90
2006,10,10,15,24,14.90
2006,10,10,15,25,14.90
2006,10,10,15,26,14.90
2006,10,10,15,27,14.90
2006,10,10,15,28,14.80
2006,10,10,15,29,14.80
2006,10,10,15,30,14.80
2006,10,10,15,31,14.80
2006,10,10,15,32,14.70
2006,10,10,15,33,14.70
2006,10,10,15,34,14.70
2006,10,10,15,35,14.80
2006,10,10,15,36,14.80
2006,10,10,15,37,14.80
2006,10,10,15,38,14.80
2006,10,10,15,39,14.80
2006,10,10,15,40,14.80
2006,10,10,15,41,14.80
2006,10,10,15,42,14.90
2006,10,10,15,43,14.90
2006,10,10,15,44,15.00
2006,10,10,15,45,15.00
2006,10,10,15,46,15.00
2006,10,10,15,47,14.90
2006,10,10,15,48,15.00
2006,10,10,15,49,14.90
2006,10,10,15,50,14.80
2006,10,10,15,51,14.80
2006,10,10,15,52,14.80
2006,10,10,15,53,14.80
2006,10,10,15,54,14.80
2006,10,10,15,55,14.70
2006,10,10,15,56,14.70
2006,10,10,15,57,14.70
2006,10,10,15,58,14.70
2006,10,10,15,59,14.70
2006,10,10,16,00,14.70
2006,10,10,16,01,14.80
2006,10,10,16,02,14.80
2006,10,10,16,03,14.80
2006,10,10,16,04,14.80
2006,10,10,16,05,14.90
2006,10,10,16,06,14.90
2006,10,10,16,07,15.00
2006,10,10,16,08,15.00
2006,10,10,16,09,15.10
2006,10,10,16,10,15.20
2006,10,10,16,11,15.30
2006,10,10,16,12,15.30
2006,10,10,16,13,15.30
2006,10,10,16,14,15.30
2006,10,10,16,15,15.40
2006,10,10,16,16,15.40
2006,10,10,16,17,15.50
2006,10,10,16,18,15.50
2006,10,10,16,19,15.60
2006,10,10,16,20,15.70
2006,10,10,16,21,15.70
2006,10,10,16,22,15.80
2006,10,10,16,23,15.90
2006,10,10,16,24,15.90
2006,10,10,16,25,16.00
2006,10,10,16,26,16.10
2006,10,10,16,27,16.10
2006,10,10,16,28,16.10
2006,10,10,16,29,16.10
2006,10,10,16,30,16.00
2006,10,10,16,31,15.90
2006,10,10,16,32,15.80
2006,10,10,16,33,15.70
2006,10,10,16,34,15.60
2006,10,10,16,35,15.50
2006,10,10,16,36,15.50
2006,10,10,16,37,15.50
2006,10,10,16,38,15.50
2006,10,10,16,39,15.40
2006,10,10,16,40,15.30
2006,10,10,16,41,15.30
2006,10,10,16,42,15.30
2006,10,10,16,43,15.20
2006,10,10,16,44,15.20
2006,10,10,16,45,15.20
2006,10,10,16,46,15.10
2006,10,10,16,47,15.10
2006,10,10,16,48,15.00
2006,10,10,16,49,15.00
2006,10,10,16,50,15.00
2006,10,10,16,51,15.00
2006,10,10,16,52,15.00
2006,10,10,16,53,15.00
2006,10,10,16,54,15.00
2006,10,10,16,55,15.00
2006,10,10,16,56,15.00
2006,10,10,16,57,14.90
2006,10,10,16,58,14.80
2006,10,10,16,59,14.70
2006,10,10,17,00,14.70
2006,10,10,17,01,14.70
2006,10,10,17,02,14.60
2006,10,10,17,03,14.60
2006,10,10,17,04,14.60
2006,10,10,17,05,14.60
2006,10,10,17,06,14.60
2006,10,10,17,07,14.60
2006,10,10,17,08,14.60
2006,10,10,17,09,14.60
2006,10,10,17,10,14.60
2006,10,10,17,11,14.60
2006,10,10,17,12,14.60
2006,10,10,17,13,14.60
2006,10,10,17,14,14.60
2006,10,10,17,15,14.50
2006,10,10,17,16,14.50
2006,10,10,17,17,14.50
2006,10,10,17,18,14.50
2006,10,10,17,19,14.50
2006,10,10,17,20,14.50
2006,10,10,17,21,14.50
2006,10,10,17,22,14.50
2006,10,10,17,23,14.50
2006,10,10,17,24,14.60
2006,10,10,17,25,14.60
2006,10,10,17,26,14.60
2006,10,10,17,27,14.60
2006,10,10,17,28,14.60
2006,10,10,17,29,14.60
2006,10,10,17,30,14.60
2006,10,10,17,31,14.60
2006,10,10,17,32,14.60
2006,10,10,17,33,14.60
2006,10,10,17,34,14.60
2006,10,10,17,35,14.60
2006,10,10,17,36,14.60
2006,10,10,17,37,14.60
2006,10,10,17,38,14.70
2006,10,10,17,39,14.70
2006,10,10,17,40,14.70
2006,10,10,17,41,14.60
2006,10,10,17,42,14.60
2006,10,10,17,43,14.60
2006,10,10,17,44,14.60
2006,10,10,17,45,14.60
2006,10,10,17,46,14.60
2006,10,10,17,47,14.50
2006,10,10,17,48,14.50
2006,10,10,17,49,14.50
2006,10,10,17,50,14.50
2006,10,10,17,51,14.40
2006,10,10,17,52,14.40
2006,10,10,17,53,14.40
2006,10,10,17,54,14.30
2006,10,10,17,55,14.20
2006,10,10,17,56,14.20
2006,10,10,17,57,14.20
2006,10,10,17,58,14.10
2006,10,10,17,59,13.90
2006,10,10,18,00,13.80
2006,10,10,18,01,13.70
2006,10,10,18,02,13.70
2006,10,10,18,03,13.60
2006,10,10,18,04,13.50
2006,10,10,18,05,13.50
2006,10,10,18,06,13.40
2006,10,10,18,07,13.30
2006,10,10,18,08,13.30
2006,10,10,18,09,13.30
2006,10,10,18,10,13.30
2006,10,10,18,11,13.20
2006,10,10,18,12,13.20
2006,10,10,18,13,13.10
2006,10,10,18,14,13.10
2006,10,10,18,15,13.10
2006,10,10,18,16,13.00
2006,10,10,18,17,13.00
2006,10,10,18,18,12.90
2006,10,10,18,19,12.90
2006,10,10,18,20,12.80
2006,10,10,18,21,12.80
2006,10,10,18,22,12.80
2006,10,10,18,23,12.70
2006,10,10,18,24,12.70
2006,10,10,18,25,12.70
2006,10,10,18,26,12.60
2006,10,10,18,27,12.60
2006,10,10,18,28,12.60
2006,10,10,18,29,12.50